Hourly Weather Bolshie Pavlovichi

Today, 20 June, Sunday

Time Temperature Precipitation Wind Pressure Humidity
00:00 +19°C° 0 mm 2 mps 753 mmHg 92%
01:00 +19°C° 0 mm 2 mps 753 mmHg 93%
02:00 +19°C° 0 mm 2 mps 753 mmHg 94%
03:00 +19°C° 0 mm 2 mps 753 mmHg 93%
04:00 +19°C° 0 mm 2 mps 752 mmHg 92%
05:00 +20°C° 0 mm 2 mps 752 mmHg 92%
06:00 +21°C° 0 mm 2 mps 752 mmHg 86%
07:00 +24°C° 0 mm 2 mps 752 mmHg 81%
08:00 +26°C° 0 mm 2 mps 752 mmHg 75%
09:00 +27°C° 0 mm 3 mps 752 mmHg 71%
10:00 +28°C° 0 mm 3 mps 752 mmHg 66%
11:00 +29°C° 0 mm 3 mps 752 mmHg 62%
12:00 +29°C° 0 mm 3 mps 752 mmHg 60%
13:00 +30°C° 0 mm 3 mps 752 mmHg 58%
14:00 +30°C° 0 mm 3 mps 752 mmHg 56%
15:00 +30°C° 0 mm 3 mps 751 mmHg 59%
16:00 +29°C° 0 mm 3 mps 751 mmHg 63%
17:00 +29°C° 0 mm 3 mps 751 mmHg 67%
18:00 +27°C° 0 mm 3 mps 751 mmHg 72%
19:00 +26°C° 0 mm 2 mps 751 mmHg 78%
20:00 +24°C° 0 mm 2 mps 751 mmHg 84%
21:00 +23°C° 0 mm 2 mps 751 mmHg 85%
22:00 +21°C° 0 mm 2 mps 751 mmHg 86%
23:00 +20°C° 0 mm 2 mps 751 mmHg 87%

Tomorrow, 21 June, Monday

Time Temperature Precipitation Wind Pressure Humidity
00:00 +20°C° 0 mm 2 mps 751 mmHg 88%
01:00 +19°C° 0 mm 2 mps 751 mmHg 88%
02:00 +19°C° 0 mm 2 mps 751 mmHg 88%
03:00 +19°C° 0 mm 2 mps 751 mmHg 88%
04:00 +19°C° 0 mm 2 mps 751 mmHg 87%
05:00 +20°C° 0 mm 2 mps 751 mmHg 87%
06:00 +21°C° 0 mm 2 mps 751 mmHg 82%
07:00 +24°C° 0 mm 3 mps 751 mmHg 77%
08:00 +25°C° 0 mm 3 mps 751 mmHg 71%
09:00 +26°C° 0 mm 4 mps 751 mmHg 66%
10:00 +27°C° 0 mm 4 mps 750 mmHg 61%
11:00 +28°C° 0 mm 4 mps 750 mmHg 57%
12:00 +28°C° 0 mm 4 mps 750 mmHg 55%
13:00 +29°C° 0 mm 4 mps 750 mmHg 53%
14:00 +30°C° 0 mm 4 mps 750 mmHg 51%
15:00 +29°C° 0 mm 4 mps 749 mmHg 55%
16:00 +29°C° 0 mm 4 mps 749 mmHg 58%
17:00 +28°C° 0 mm 4 mps 749 mmHg 62%
18:00 +27°C° 0 mm 4 mps 749 mmHg 69%
19:00 +26°C° 0 mm 3 mps 749 mmHg 75%
20:00 +24°C° 0 mm 3 mps 749 mmHg 81%
21:00 +22°C° 0 mm 3 mps 749 mmHg 84%
22:00 +22°C° 0 mm 3 mps 749 mmHg 87%
23:00 +21°C° 0 mm 3 mps 749 mmHg 90%

Day after tomorrow, 22 June, Tuesday

Time Temperature Precipitation Wind Pressure Humidity
00:00 +20°C° 0 mm 3 mps 749 mmHg 91%
01:00 +20°C° 0 mm 3 mps 749 mmHg 93%
02:00 +20°C° 0 mm 3 mps 749 mmHg 94%
03:00 +20°C° 0 mm 3 mps 749 mmHg 94%
04:00 +20°C° 0 mm 3 mps 749 mmHg 93%
05:00 +20°C° 0 mm 3 mps 749 mmHg 93%
06:00 +22°C° 0 mm 4 mps 749 mmHg 87%
07:00 +23°C° 0 mm 4 mps 749 mmHg 81%
08:00 +26°C° 0 mm 4 mps 749 mmHg 74%
09:00 +27°C° 0 mm 5 mps 749 mmHg 69%
10:00 +28°C° 0 mm 5 mps 749 mmHg 64%
11:00 +29°C° 0 mm 5 mps 749 mmHg 59%
12:00 +30°C° 0 mm 5 mps 749 mmHg 58%
13:00 +30°C° 0 mm 5 mps 749 mmHg 56%
14:00 +32°C° 0 mm 5 mps 749 mmHg 55%
15:00 +32°C° 0 mm 5 mps 749 mmHg 57%
16:00 +32°C° 0 mm 4 mps 749 mmHg 60%
17:00 +30°C° 0 mm 4 mps 749 mmHg 62%
18:00 +29°C° 0 mm 4 mps 749 mmHg 69%
19:00 +27°C° 0 mm 3 mps 749 mmHg 76%
20:00 +26°C° 0 mm 3 mps 749 mmHg 82%
21:00 +25°C° 0 mm 3 mps 749 mmHg 83%
22:00 +24°C° 0 mm 3 mps 749 mmHg 84%
23:00 +22°C° 0 mm 3 mps 749 mmHg 85%

23 June, Wednesday

Time Temperature Precipitation Wind Pressure Humidity
00:00 +21°C° 0 mm 3 mps 749 mmHg 87%
01:00 +20°C° 0 mm 3 mps 749 mmHg 89%
02:00 +20°C° 0 mm 3 mps 749 mmHg 92%
03:00 +20°C° 0 mm 3 mps 749 mmHg 91%
04:00 +20°C° 0 mm 3 mps 750 mmHg 91%
05:00 +20°C° 0 mm 2 mps 750 mmHg 90%
06:00 +22°C° 0 mm 3 mps 750 mmHg 84%
07:00 +25°C° 0 mm 3 mps 750 mmHg 78%
08:00 +27°C° 0 mm 4 mps 750 mmHg 72%
09:00 +28°C° 0 mm 4 mps 750 mmHg 67%
10:00 +29°C° 0 mm 4 mps 750 mmHg 62%
11:00 +32°C° 0 mm 4 mps 750 mmHg 57%
12:00 +32°C° 0 mm 4 mps 750 mmHg 56%
13:00 +33°C° 0 mm 4 mps 750 mmHg 55%
14:00 +33°C° 0 mm 5 mps 750 mmHg 53%
15:00 +33°C° 0.1 mm 4 mps 750 mmHg 56%
16:00 +33°C° 0.1 mm 4 mps 750 mmHg 59%
17:00 +33°C° 0.1 mm 3 mps 750 mmHg 61%
18:00 +30°C° 0.1 mm 3 mps 750 mmHg 68%
19:00 +29°C° 0.1 mm 3 mps 750 mmHg 74%
20:00 +27°C° 0.1 mm 3 mps 750 mmHg 80%
21:00 +26°C° 0 mm 3 mps 750 mmHg 82%
22:00 +25°C° 0 mm 3 mps 750 mmHg 84%
23:00 +24°C° 0 mm 3 mps 750 mmHg 86%

24 June, Thursday

Time Temperature Precipitation Wind Pressure Humidity
00:00 +24°C° 0 mm 2 mps 750 mmHg 88%
01:00 +23°C° 0 mm 2 mps 750 mmHg 89%
02:00 +23°C° 0 mm 2 mps 750 mmHg 90%
03:00 +23°C° 0 mm 2 mps 750 mmHg 90%
04:00 +23°C° 0 mm 2 mps 750 mmHg 91%
05:00 +23°C° 0 mm 2 mps 750 mmHg 91%
06:00 +25°C° 0 mm 2 mps 750 mmHg 85%
07:00 +27°C° 0 mm 3 mps 751 mmHg 78%
08:00 +28°C° 0 mm 3 mps 751 mmHg 72%
09:00 +29°C° 0 mm 3 mps 751 mmHg 66%
10:00 +30°C° 0 mm 4 mps 751 mmHg 60%
11:00 +32°C° 0 mm 4 mps 751 mmHg 54%
12:00 +33°C° 0 mm 4 mps 751 mmHg 54%
13:00 +33°C° 0 mm 4 mps 751 mmHg 54%
14:00 +33°C° 0 mm 4 mps 751 mmHg 53%
15:00 +33°C° 0.1 mm 4 mps 750 mmHg 57%
16:00 +33°C° 0.1 mm 4 mps 750 mmHg 60%
17:00 +32°C° 0.1 mm 4 mps 750 mmHg 63%
18:00 +30°C° 0.2 mm 3 mps 750 mmHg 69%
19:00 +28°C° 0.2 mm 3 mps 750 mmHg 75%
20:00 +27°C° 0.2 mm 3 mps 749 mmHg 80%
21:00 +25°C° 0.4 mm 2 mps 750 mmHg 81%
22:00 +23°C° 0.4 mm 1 mps 750 mmHg 81%
23:00 +21°C° 0.4 mm 1 mps 750 mmHg 82%

25 June, Friday

Time Temperature Precipitation Wind Pressure Humidity
00:00 +21°C° 0.1 mm 1 mps 750 mmHg 84%
01:00 +21°C° 0.1 mm 1 mps 750 mmHg 87%
02:00 +20°C° 0.1 mm 2 mps 750 mmHg 89%
03:00 +21°C° 0.1 mm 2 mps 749 mmHg 90%
04:00 +21°C° 0.1 mm 2 mps 749 mmHg 92%
05:00 +21°C° 0.1 mm 2 mps 749 mmHg 93%
06:00 +24°C° 0 mm 3 mps 749 mmHg 88%
07:00 +26°C° 0 mm 3 mps 749 mmHg 83%
08:00 +27°C° 0 mm 3 mps 749 mmHg 78%
09:00 +28°C° 0.1 mm 4 mps 749 mmHg 73%
10:00 +30°C° 0.1 mm 4 mps 749 mmHg 69%
11:00 +32°C° 0.1 mm 4 mps 749 mmHg 65%
12:00 +32°C° 0 mm 5 mps 749 mmHg 61%
13:00 +33°C° 0 mm 5 mps 749 mmHg 58%
14:00 +33°C° 0 mm 5 mps 749 mmHg 54%
15:00 +33°C° 0 mm 5 mps 749 mmHg 57%
16:00 +32°C° 0 mm 5 mps 748 mmHg 59%
17:00 +32°C° 0 mm 4 mps 748 mmHg 62%
18:00 +29°C° 0.1 mm 3 mps 748 mmHg 68%
19:00 +28°C° 0.1 mm 2 mps 747 mmHg 73%
20:00 +26°C° 0.1 mm 2 mps 747 mmHg 79%
21:00 +25°C° 0.4 mm 2 mps 748 mmHg 82%
22:00 +25°C° 0.4 mm 2 mps 748 mmHg 84%
23:00 +24°C° 0.4 mm 2 mps 748 mmHg 87%
Show more